TimeCST,TemperatureF,Dew PointF,Humidity,Sea Level PressureIn,VisibilityMPH,Wind Direction,Wind SpeedMPH,Gust SpeedMPH,PrecipitationIn,Events,Conditions,WindDirDegrees,DateUTC
12:15 AM,33.8,28.4,81,30.32,10.0,NNW,6.9,-,N/A,,Overcast,340,2013-01-02 06:15:00
12:35 AM,33.8,28.4,81,30.31,10.0,NNW,5.8,-,N/A,,Overcast,340,2013-01-02 06:35:00
12:55 AM,33.8,28.4,81,30.31,10.0,North,9.2,-,N/A,,Mostly Cloudy,360,2013-01-02 06:55:00
1:15 AM,33.8,28.4,81,30.31,10.0,NNW,4.6,-,N/A,,Mostly Cloudy,340,2013-01-02 07:15:00
1:35 AM,33.8,28.4,81,30.31,10.0,NNW,5.8,-,N/A,,Overcast,340,2013-01-02 07:35:00
2:15 AM,33.8,28.4,81,30.32,10.0,NNW,4.6,-,N/A,,Scattered Clouds,340,2013-01-02 08:15:00
2:35 AM,33.8,28.4,81,30.32,10.0,NNW,5.8,-,N/A,,Scattered Clouds,330,2013-01-02 08:35:00
3:15 AM,33.8,28.4,81,30.32,7.0,North,8.1,-,N/A,,Overcast,350,2013-01-02 09:15:00
3:35 AM,33.8,28.4,81,30.32,7.0,North,8.1,-,N/A,,Scattered Clouds,350,2013-01-02 09:35:00
3:55 AM,32.0,28.4,87,30.33,5.0,North,8.1,-,N/A,,Clear,350,2013-01-02 09:55:00
4:15 AM,32.0,28.4,87,30.31,5.0,North,6.9,-,N/A,,Clear,350,2013-01-02 10:15:00
4:35 AM,32.0,28.4,87,30.32,5.0,North,6.9,-,N/A,,Clear,350,2013-01-02 10:35:00
5:15 AM,32.0,28.4,87,30.32,5.0,North,8.1,-,N/A,,Clear,350,2013-01-02 11:15:00
5:35 AM,32.0,28.4,87,30.32,5.0,North,6.9,-,N/A,,Clear,360,2013-01-02 11:35:00
5:55 AM,32.0,28.4,87,30.31,5.0,North,5.8,-,N/A,,Clear,350,2013-01-02 11:55:00
7:50 AM,32.0,28.4,87,30.34,5.0,NW,4.6,-,N/A,,Overcast,320,2013-01-02 13:50:00
8:50 AM,33.8,28.4,81,30.37,5.0,NW,5.8,-,N/A,,Haze,320,2013-01-02 14:50:00
9:50 AM,33.8,28.4,81,30.37,7.0,North,5.8,-,N/A,,Overcast,350,2013-01-02 15:50:00
10:50 AM,35.6,28.4,75,30.38,10.0,WNW,5.8,-,N/A,,Overcast,300,2013-01-02 16:50:00
11:47 AM,37.4,26.6,65,30.36,10.0,NW,6.9,-,N/A,,Overcast,310,2013-01-02 17:47:00
1:50 PM,39.2,26.6,61,30.30,10.0,NW,3.5,-,N/A,,Overcast,320,2013-01-02 19:50:00
2:50 PM,39.2,28.4,65,30.29,10.0,WNW,4.6,-,N/A,,Overcast,300,2013-01-02 20:50:00
4:50 PM,39.2,28.4,65,30.29,10.0,NW,3.5,-,N/A,,Mostly Cloudy,320,2013-01-02 22:50:00
8:15 PM,35.6,28.4,75,30.34,10.0,Calm,Calm,-,N/A,,Clear,0,2013-01-03 02:15:00
8:35 PM,35.6,28.4,75,30.34,10.0,Calm,Calm,-,N/A,,Clear,0,2013-01-03 02:35:00
8:55 PM,35.6,28.4,75,30.34,10.0,Calm,Calm,-,N/A,,Clear,0,2013-01-03 02:55:00
9:15 PM,35.6,28.4,75,30.34,10.0,Calm,Calm,-,N/A,,Clear,0,2013-01-03 03:15:00
9:35 PM,35.6,28.4,75,30.34,10.0,Calm,Calm,-,N/A,,Clear,0,2013-01-03 03:35:00
9:55 PM,35.6,28.4,75,30.34,10.0,Calm,Calm,-,N/A,,Clear,0,2013-01-03 03:55:00
10:15 PM,33.8,28.4,81,30.35,10.0,Calm,Calm,-,N/A,,Clear,0,2013-01-03 04:15:00
10:35 PM,33.8,28.4,81,30.35,7.0,Calm,Calm,-,N/A,,Clear,0,2013-01-03 04:35:00
10:55 PM,32.0,28.4,87,30.35,7.0,Calm,Calm,-,N/A,,Clear,0,2013-01-03 04:55:00
11:15 PM,32.0,28.4,87,30.35,7.0,SSW,3.5,-,N/A,,Clear,210,2013-01-03 05:15:00
11:35 PM,32.0,28.4,87,30.36,7.0,Calm,Calm,-,N/A,,Clear,0,2013-01-03 05:35:00
11:55 PM,32.0,28.4,87,30.36,7.0,Calm,Calm,-,N/A,,Clear,0,2013-01-03 05:55:00